�������l�o���
Date,Time,MP-1(��Sv/h),MP-2(��Sv/h),MP-3(��Sv/h),MP-4(��Sv/h),MP-5(��Sv/h),MP-6(��Sv/h),MP-7(��Sv/h),MP-8(��Sv/h),����,����(m/s),���J
2022/01/15,00:00,0.574,0.859,0.549,1.058,0.741,0.347,0.608,0.580,���k��,13.6,��
2022/01/15,00:10,0.574,0.858,0.548,1.058,0.739,0.347,0.605,0.579,���k��,12.7,��
2022/01/15,00:20,0.573,0.861,0.547,1.060,0.739,0.348,0.607,0.579,�k��,12.8,��
2022/01/15,00:30,0.575,0.863,0.547,1.058,0.739,0.346,0.608,0.579,�k��,14.1,��
2022/01/15,00:40,0.574,0.862,0.548,1.057,0.741,0.347,0.608,0.581,�k��,12.8,��
2022/01/15,00:50,0.576,0.862,0.547,1.057,0.740,0.347,0.605,0.579,�k��,8.9,��
2022/01/15,01:00,0.575,0.862,0.546,1.059,0.742,0.349,0.607,0.579,�k��,9.2,��
2022/01/15,01:10,0.576,0.862,0.547,1.059,0.740,0.349,0.608,0.581,�k��,7.3,��
2022/01/15,01:20,0.576,0.863,0.547,1.058,0.742,0.348,0.608,0.582,�k��,7.6,��
2022/01/15,01:30,0.576,0.863,0.549,1.060,0.740,0.349,0.608,0.581,�k��,6.9,��
2022/01/15,01:40,0.575,0.864,0.549,1.058,0.739,0.350,0.606,0.580,�k��,6.6,��
2022/01/15,01:50,0.574,0.862,0.550,1.058,0.738,0.350,0.609,0.582,�k��,6.2,��
2022/01/15,02:00,0.574,0.864,0.548,1.059,0.739,0.348,0.608,0.581,�k��,4.0,��
2022/01/15,02:10,0.577,0.865,0.548,1.056,0.741,0.349,0.609,0.581,���k��,2.3,��
2022/01/15,02:20,0.575,0.863,0.550,1.059,0.739,0.349,0.608,0.581,��쓌,1.5,��
2022/01/15,02:30,0.574,0.863,0.549,1.058,0.737,0.349,0.608,0.581,���쓌,0.8,��
2022/01/15,02:40,0.575,0.863,0.550,1.057,0.739,0.349,0.607,0.581,�쓌,1.7,��
2022/01/15,02:50,0.573,0.862,0.547,1.059,0.738,0.349,0.609,0.580,��,1.5,��
2022/01/15,03:00,0.576,0.860,0.549,1.057,0.738,0.349,0.608,0.581,��,1.5,��
2022/01/15,03:10,0.575,0.862,0.549,1.057,0.739,0.349,0.607,0.580,���쓌,0.9,��
2022/01/15,03:20,0.573,0.863,0.547,1.059,0.739,0.349,0.605,0.580,��,0.9,��
2022/01/15,03:30,0.573,0.861,0.548,1.057,0.738,0.350,0.608,0.578,��쐼,1.7,��
2022/01/15,03:40,0.574,0.863,0.548,1.056,0.738,0.349,0.607,0.578,��,1.9,��
2022/01/15,03:50,0.575,0.860,0.548,1.058,0.739,0.347,0.607,0.579,�쐼,1.5,��
2022/01/15,04:00,0.574,0.862,0.548,1.058,0.738,0.348,0.607,0.579,��,1.2,��
2022/01/15,04:10,0.573,0.861,0.549,1.058,0.738,0.349,0.607,0.578,���k��,2.3,��
2022/01/15,04:20,0.572,0.863,0.549,1.058,0.738,0.348,0.607,0.579,�k�k��,1.7,��
2022/01/15,04:30,0.575,0.862,0.548,1.059,0.738,0.348,0.606,0.578,-,CALM,��
2022/01/15,04:40,0.574,0.860,0.548,1.057,0.740,0.347,0.606,0.580,�k�k��,0.6,��
2022/01/15,04:50,0.574,0.860,0.548,1.058,0.738,0.348,0.606,0.578,-,CALM,��
2022/01/15,05:00,0.573,0.863,0.548,1.056,0.737,0.347,0.606,0.577,���k��,0.6,��
2022/01/15,05:10,0.574,0.863,0.548,1.056,0.740,0.347,0.607,0.580,���k��,1.4,��
2022/01/15,05:20,0.572,0.861,0.548,1.057,0.738,0.348,0.607,0.577,�쓌,1.4,��
2022/01/15,05:30,0.573,0.860,0.548,1.056,0.736,0.348,0.608,0.577,��쓌,1.4,��
2022/01/15,05:40,0.573,0.861,0.548,1.056,0.737,0.349,0.605,0.577,���쓌,2.2,��
2022/01/15,05:50,0.574,0.862,0.547,1.055,0.738,0.348,0.606,0.578,�k��,1.4,��
2022/01/15,06:00,0.574,0.864,0.548,1.057,0.738,0.349,0.606,0.577,��,1.9,��
2022/01/15,06:10,0.572,0.861,0.548,1.058,0.739,0.348,0.607,0.577,��,1.7,��
2022/01/15,06:20,0.573,0.862,0.548,1.057,0.738,0.348,0.606,0.577,���k��,1.2,��
2022/01/15,06:30,0.572,0.860,0.546,1.055,0.736,0.348,0.606,0.576,-,CALM,��
2022/01/15,06:40,0.572,0.860,0.548,1.055,0.739,0.347,0.608,0.577,-,CALM,��
2022/01/15,06:50,0.573,0.861,0.548,1.055,0.737,0.348,0.604,0.577,�k�k��,0.6,��
2022/01/15,07:00,0.573,0.861,0.548,1.054,0.736,0.347,0.606,0.576,-,CALM,��
2022/01/15,07:10,0.572,0.861,0.548,1.055,0.737,0.348,0.606,0.574,-,CALM,��
2022/01/15,07:20,0.574,0.859,0.546,1.057,0.736,0.347,0.608,0.577,-,CALM,��
2022/01/15,07:30,0.573,0.862,0.547,1.055,0.737,0.348,0.607,0.576,��,0.8,��
2022/01/15,07:40,0.574,0.862,0.548,1.057,0.736,0.347,0.607,0.577,���k��,1.2,��
2022/01/15,07:50,0.575,0.860,0.547,1.057,0.738,0.347,0.607,0.578,�k��,1.7,��
2022/01/15,08:00,0.574,0.860,0.547,1.056,0.735,0.349,0.607,0.576,��,1.5,��
2022/01/15,08:10,0.575,0.861,0.549,1.057,0.736,0.347,0.608,0.577,���k��,2.3,��
2022/01/15,08:20,0.574,0.863,0.547,1.058,0.736,0.348,0.606,0.577,���k��,3.2,��
2022/01/15,08:30,0.573,0.861,0.548,1.058,0.737,0.349,0.608,0.577,��,3.7,��
2022/01/15,08:40,0.574,0.863,0.548,1.058,0.737,0.348,0.608,0.577,���k��,4.3,��
2022/01/15,08:50,0.575,0.861,0.547,1.057,0.736,0.349,0.608,0.577,��,3.7,��
2022/01/15,09:00,0.576,0.863,0.548,1.057,0.736,0.349,0.608,0.576,��,2.8,��
2022/01/15,09:10,0.576,0.860,0.549,1.058,0.738,0.347,0.607,0.575,���k��,4.4,��
2022/01/15,09:20,0.577,0.861,0.550,1.057,0.736,0.349,0.607,0.577,���k��,4.3,��
2022/01/15,09:30,0.575,0.862,0.548,1.056,0.736,0.348,0.609,0.577,���k��,5.0,��
2022/01/15,09:40,0.573,0.864,0.549,1.058,0.737,0.348,0.608,0.575,���k��,4.9,��
2022/01/15,09:50,0.576,0.863,0.550,1.059,0.736,0.348,0.608,0.577,���k��,5.5,��
2022/01/15,10:00,0.574,0.862,0.550,1.060,0.738,0.350,0.608,0.577,��,5.3,��
2022/01/15,10:10,0.575,0.862,0.550,1.056,0.738,0.349,0.607,0.577,��,6.6,��
2022/01/15,10:20,0.575,0.862,0.551,1.057,0.736,0.349,0.607,0.577,���k��,4.9,��
2022/01/15,10:30,0.575,0.860,0.550,1.058,0.739,0.349,0.606,0.578,��,3.7,��
2022/01/15,10:40,0.575,0.861,0.550,1.059,0.739,0.348,0.607,0.576,��,4.0,��
2022/01/15,10:50,0.576,0.865,0.550,1.060,0.739,0.350,0.608,0.577,��,5.7,��
2022/01/15,11:00,0.577,0.863,0.551,1.058,0.740,0.349,0.607,0.577,��,3.5,��
2022/01/15,11:10,0.577,0.862,0.550,1.061,0.741,0.349,0.607,0.576,��,4.8,��
2022/01/15,11:20,0.576,0.861,0.550,1.060,0.740,0.348,0.607,0.577,���k��,5.6,��
2022/01/15,11:30,0.576,0.861,0.550,1.061,0.738,0.350,0.606,0.577,��,6.1,��
2022/01/15,11:40,0.577,0.863,0.551,1.061,0.740,0.348,0.608,0.578,��,6.6,��
2022/01/15,11:50,0.577,0.863,0.550,1.059,0.742,0.348,0.607,0.577,��,6.3,��
2022/01/15,12:00,0.578,0.864,0.551,1.059,0.739,0.349,0.608,0.577,��,5.3,��
2022/01/15,12:10,0.577,0.862,0.551,1.058,0.741,0.349,0.607,0.578,��,6.2,��
2022/01/15,12:20,0.577,0.866,0.551,1.060,0.742,0.349,0.608,0.578,��,5.1,��
2022/01/15,12:30,0.577,0.865,0.550,1.060,0.738,0.348,0.608,0.577,��,6.3,��
2022/01/15,12:40,0.578,0.864,0.551,1.059,0.742,0.349,0.609,0.577,���k��,6.5,��
2022/01/15,12:50,0.578,0.864,0.551,1.058,0.743,0.350,0.608,0.578,��,6.1,��
2022/01/15,13:00,0.578,0.865,0.551,1.061,0.742,0.349,0.607,0.577,���k��,4.1,��
2022/01/15,13:10,0.578,0.867,0.551,1.058,0.741,0.349,0.607,0.578,��,6.7,��
2022/01/15,13:20,0.578,0.866,0.551,1.059,0.742,0.348,0.607,0.577,��,6.1,��
2022/01/15,13:30,0.577,0.867,0.549,1.061,0.742,0.348,0.609,0.579,��,7.2,��
2022/01/15,13:40,0.577,0.866,0.549,1.064,0.741,0.349,0.608,0.577,��,7.1,��
2022/01/15,13:50,0.577,0.866,0.551,1.061,0.743,0.350,0.608,0.579,���k��,6.3,��
2022/01/15,14:00,0.576,0.866,0.552,1.061,0.742,0.350,0.607,0.579,���쐼,4.7,��
2022/01/15,14:10,0.576,0.865,0.550,1.062,0.743,0.349,0.609,0.578,��,5.4,��
2022/01/15,14:20,0.578,0.866,0.552,1.058,0.741,0.349,0.609,0.579,��,6.0,��
2022/01/15,14:30,0.577,0.868,0.551,1.062,0.744,0.349,0.610,0.580,��,5.7,��
2022/01/15,14:40,0.578,0.867,0.550,1.061,0.744,0.347,0.608,0.576,��,6.7,��
2022/01/15,14:50,0.578,0.866,0.551,1.061,0.741,0.348,0.610,0.579,��,5.8,��
2022/01/15,15:00,0.577,0.868,0.551,1.060,0.743,0.349,0.609,0.577,���k��,5.9,��
2022/01/15,15:10,0.576,0.869,0.552,1.059,0.742,0.349,0.609,0.580,��,5.6,��
2022/01/15,15:20,0.577,0.867,0.551,1.063,0.743,0.349,0.609,0.578,�k��,5.3,��
2022/01/15,15:30,0.577,0.867,0.550,1.061,0.743,0.351,0.608,0.578,�k��,5.0,��
2022/01/15,15:40,0.578,0.864,0.550,1.062,0.744,0.349,0.608,0.578,�k��,4.4,��
2022/01/15,15:50,0.578,0.868,0.549,1.062,0.743,0.350,0.610,0.578,�k��,5.0,��
2022/01/15,16:00,0.577,0.864,0.550,1.061,0.744,0.349,0.610,0.579,�k��,4.1,��
2022/01/15,16:10,0.577,0.867,0.551,1.060,0.741,0.348,0.609,0.578,���k��,3.4,��
2022/01/15,16:20,0.576,0.868,0.550,1.060,0.742,0.350,0.609,0.579,���k��,3.1,��
2022/01/15,16:30,0.574,0.866,0.549,1.063,0.744,0.349,0.609,0.578,��,3.1,��
2022/01/15,16:40,0.577,0.865,0.551,1.062,0.744,0.349,0.608,0.578,���쐼,4.4,��
2022/01/15,16:50,0.576,0.866,0.549,1.064,0.743,0.348,0.610,0.578,��,4.6,��
2022/01/15,17:00,0.577,0.867,0.550,1.059,0.744,0.349,0.609,0.578,��,5.0,��
2022/01/15,17:10,0.576,0.866,0.552,1.060,0.743,0.349,0.608,0.578,���k��,5.5,��
2022/01/15,17:20,0.576,0.865,0.550,1.059,0.743,0.348,0.610,0.577,���k��,5.8,��
2022/01/15,17:30,0.577,0.864,0.550,1.060,0.744,0.348,0.610,0.578,���k��,4.8,��
2022/01/15,17:40,0.576,0.867,0.550,1.061,0.742,0.348,0.608,0.578,���k��,4.3,��
2022/01/15,17:50,0.577,0.868,0.550,1.061,0.741,0.348,0.608,0.578,�k��,4.0,��
2022/01/15,18:00,0.577,0.866,0.549,1.061,0.743,0.349,0.610,0.579,���k��,6.1,��
2022/01/15,18:10,0.575,0.866,0.550,1.061,0.743,0.349,0.608,0.578,���k��,5.7,��
2022/01/15,18:20,0.574,0.866,0.550,1.061,0.744,0.349,0.608,0.578,���k��,4.5,��
2022/01/15,18:30,0.577,0.868,0.551,1.062,0.744,0.348,0.608,0.578,���k��,4.6,��
2022/01/15,18:40,0.575,0.865,0.548,1.062,0.742,0.348,0.609,0.576,���k��,3.8,��
2022/01/15,18:50,0.578,0.867,0.550,1.061,0.743,0.349,0.607,0.578,��,3.6,��
2022/01/15,19:00,0.575,0.865,0.550,1.060,0.743,0.349,0.609,0.577,��,3.2,��
2022/01/15,19:10,0.575,0.867,0.551,1.060,0.741,0.349,0.609,0.577,��,2.0,��
2022/01/15,19:20,0.575,0.866,0.551,1.062,0.741,0.347,0.609,0.577,��,3.0,��
2022/01/15,19:30,0.576,0.867,0.550,1.062,0.743,0.347,0.607,0.579,���쐼,2.8,��
2022/01/15,19:40,0.575,0.867,0.549,1.062,0.740,0.349,0.607,0.576,��,2.5,��
2022/01/15,19:50,0.576,0.866,0.549,1.058,0.742,0.347,0.608,0.578,���쐼,1.9,��
2022/01/15,20:00,0.576,0.868,0.549,1.061,0.742,0.348,0.607,0.578,�쐼,2.0,��
2022/01/15,20:10,0.576,0.867,0.549,1.059,0.743,0.349,0.608,0.576,�쐼,2.2,��
2022/01/15,20:20,0.576,0.866,0.549,1.062,0.743,0.348,0.608,0.575,���쐼,2.8,��
2022/01/15,20:30,0.577,0.866,0.549,1.061,0.741,0.349,0.607,0.578,���쐼,3.1,��
2022/01/15,20:40,0.576,0.865,0.549,1.063,0.743,0.348,0.606,0.578,�쐼,3.4,��
2022/01/15,20:50,0.577,0.864,0.549,1.061,0.742,0.348,0.607,0.576,���쐼,3.0,��
2022/01/15,21:00,0.575,0.865,0.550,1.059,0.741,0.347,0.608,0.576,��,2.0,��
2022/01/15,21:10,0.575,0.866,0.547,1.058,0.742,0.348,0.608,0.575,���쐼,2.0,��
2022/01/15,21:20,0.575,0.864,0.549,1.063,0.743,0.348,0.607,0.577,���쐼,2.3,��
2022/01/15,21:30,0.577,0.865,0.551,1.062,0.743,0.349,0.606,0.576,���쐼,2.3,��
2022/01/15,21:40,0.576,0.865,0.549,1.059,0.743,0.347,0.607,0.576,��,2.6,��
2022/01/15,21:50,0.576,0.865,0.548,1.060,0.743,0.348,0.606,0.575,��,3.9,��
2022/01/15,22:00,0.575,0.866,0.549,1.058,0.741,0.347,0.608,0.576,��,3.6,��
2022/01/15,22:10,0.575,0.867,0.550,1.060,0.743,0.347,0.608,0.576,��,1.9,��
2022/01/15,22:20,0.576,0.866,0.550,1.060,0.742,0.348,0.606,0.577,��,2.9,��
2022/01/15,22:30,0.576,0.866,0.549,1.061,0.742,0.348,0.607,0.575,��,3.2,��
2022/01/15,22:40,0.575,0.866,0.549,1.061,0.741,0.347,0.607,0.578,��,3.0,��
2022/01/15,22:50,0.575,0.865,0.551,1.062,0.740,0.348,0.606,0.576,��,2.3,��
2022/01/15,23:00,0.576,0.866,0.547,1.061,0.743,0.348,0.607,0.575,���쐼,3.6,��
2022/01/15,23:10,0.575,0.865,0.549,1.060,0.742,0.348,0.606,0.577,��,4.1,��
2022/01/15,23:20,0.576,0.867,0.547,1.061,0.743,0.348,0.606,0.576,��,5.3,��
2022/01/15,23:30,0.576,0.866,0.550,1.060,0.741,0.347,0.606,0.576,��,5.0,��
2022/01/15,23:40,0.577,0.865,0.549,1.062,0.743,0.348,0.606,0.575,��,5.0,��
2022/01/15,23:50,0.575,0.865,0.549,1.060,0.741,0.348,0.607,0.576,��,5.4,��
